Regional Weather Roundup
Issued by NWS

Home | Current Version | Previous Version | Graphics & Text | Print | Product List | Glossary On
Versions: 1 2 3 4 5 6 7 8 9 10 11 12 13 14 15 16 17 18 19 20 21 22 23 24 25 26 27 28 29 30 31 32 33 34 35 36 37 38 39 40 41 42 43 44 45 46 47 48 49 50
531
ASUS43 KLMK 161610
RWRKY
KENTUCKY REGIONAL WEATHER ROUNDUP
NATIONAL WEATHER SERVICE LOUISVILLE KY
1200 PM EDT WED AUG 16 2017

NOTE "FAIR" INDICATES FEW OR NO CLOUDS BELOW 12,000 FEET
WITH NO SIGNIFICANT WEATHER AND/OR OBSTRUCTIONS TO VISIBILITY.

KYZ001>023-026-027-061>063-070>075-161700-
WESTERN AND SOUTH CENTRAL KENTUCKY

CITY           SKY/WX    TMP DP  RH WIND       PRES   REMARKS
PADUCAH        CLOUDY    83  75  77 VRB5      30.00S HX  90
HENDERSON      CLOUDY    81  75  82 S5        30.03S
OWENSBORO      MOSUNNY   83  74  74 S8        30.03S
HOPKINSVILLE   MOSUNNY   86  77  74 S5        30.04R HX  97
BOWLING GREEN  PTSUNNY   83  76  79 VRB5      30.06S HX  91
GLASGOW        CLOUDY    83  73  72 SW6       30.08R
$$

KYZ024-025-028>034-038-045-046-053-161700-
NORTH CENTRAL KENTUCKY

CITY           SKY/WX    TMP DP  RH WIND       PRES   REMARKS
LOUISVILLE/SDF MOSUNNY   88  71  57 S10       30.03S HX  94
LOUISVILLE/LOU MOSUNNY   86  72  62 S8        30.04S HX  92
FORT KNOX      MOSUNNY   83  72  68 SW7       30.04S
$$

KYZ035>037-039>044-047>052-055>060-089>105-161700-
NORTHEAST KENTUCKY

CITY           SKY/WX    TMP DP  RH WIND       PRES   REMARKS
LEXINGTON      PTSUNNY   83  71  67 S7        30.07S
COVINGTON      MOSUNNY   85  71  63 SW5       30.06S HX  90
FRANKFORT      PTSUNNY   85  72  65 S5        30.05S HX  91
$$

KYZ054-064>069-076>088-106>120-161700-
SOUTHEAST KENTUCKY

CITY           SKY/WX    TMP DP  RH WIND       PRES   REMARKS
JACKSON        PTSUNNY   81  71  71 SE3       30.10S
LONDON         CLOUDY    77  72  84 S3        30.10S
SOMERSET       MOSUNNY   81  70  69 S6        30.09S
MIDDLESBORO    PTSUNNY   83  73  69 S6        30.10S
MONTICELLO     CLOUDY    84  74  71 W13       30.10R HX  91
$$





USA.gov is the U.S. government's official web portal to all federal, state and local government web resources and services.